TimeEST,TemperatureF,Dew PointF,Humidity,Sea Level PressureIn,VisibilityMPH,Wind Direction,Wind SpeedMPH,Gust SpeedMPH,PrecipitationIn,Events,Conditions,WindDirDegrees,DateUTC
12:15 AM,3.2,-0.6,84,30.19,10.0,West,6.9,-,N/A,,Clear,280,2013-12-27 05:15:00
12:34 AM,3.4,-0.4,84,30.18,10.0,WNW,5.8,-,N/A,,Clear,290,2013-12-27 05:34:00
12:55 AM,2.7,-1.1,84,30.18,10.0,WNW,5.8,-,N/A,,Clear,290,2013-12-27 05:55:00
1:14 AM,4.1,0.1,84,30.18,10.0,WNW,4.6,-,N/A,,Clear,290,2013-12-27 06:14:00
1:34 AM,4.3,0.5,84,30.17,10.0,WNW,4.6,-,N/A,,Clear,290,2013-12-27 06:34:00
1:55 AM,-0.6,-4.4,84,30.17,10.0,West,4.6,-,N/A,,Clear,280,2013-12-27 06:55:00
2:14 AM,2.7,-0.0,88,30.18,10.0,West,4.6,-,N/A,,Clear,280,2013-12-27 07:14:00
2:34 AM,-3.6,-6.3,88,30.18,10.0,West,4.6,-,N/A,,Clear,280,2013-12-27 07:34:00
2:55 AM,-5.1,-8.0,87,30.18,10.0,West,5.8,-,N/A,,Clear,280,2013-12-27 07:55:00
3:14 AM,-4.4,-8.0,84,30.18,10.0,West,4.6,-,N/A,,Clear,280,2013-12-27 08:14:00
3:35 AM,-7.2,-11.2,83,30.18,10.0,West,3.5,-,N/A,,Clear,280,2013-12-27 08:35:00
3:55 AM,-5.8,-9.4,84,30.18,10.0,WNW,4.6,-,N/A,,Clear,290,2013-12-27 08:55:00
4:14 AM,-10.1,-14.1,83,30.18,10.0,West,4.6,-,N/A,,Clear,280,2013-12-27 09:14:00
4:35 AM,-8.0,-12.1,82,30.18,10.0,WNW,3.5,-,N/A,,Clear,290,2013-12-27 09:35:00
4:54 AM,-6.9,-11.0,82,30.19,10.0,West,4.6,-,N/A,,Clear,280,2013-12-27 09:54:00
5:14 AM,-5.4,-9.2,84,30.19,10.0,WNW,5.8,-,N/A,,Clear,290,2013-12-27 10:14:00
5:35 AM,-1.3,-4.5,86,30.18,10.0,WNW,4.6,-,N/A,,Clear,290,2013-12-27 10:35:00
5:54 AM,-5.1,-9.0,83,30.18,10.0,WNW,3.5,-,N/A,,Clear,290,2013-12-27 10:54:00
6:14 AM,-9.2,-13.7,81,30.17,10.0,SSW,3.5,-,N/A,,Clear,200,2013-12-27 11:14:00
6:35 AM,-8.9,-13.5,80,30.17,10.0,Calm,Calm,-,N/A,,Clear,0,2013-12-27 11:35:00
6:54 AM,-7.1,-11.2,82,30.17,10.0,Calm,Calm,-,N/A,,Clear,0,2013-12-27 11:54:00
7:14 AM,-9.0,-13.7,80,30.17,10.0,Calm,Calm,-,N/A,,Clear,0,2013-12-27 12:14:00
7:35 AM,-8.3,-12.6,81,30.18,10.0,Calm,Calm,-,N/A,,Clear,0,2013-12-27 12:35:00
7:54 AM,-9.8,-14.4,80,30.18,10.0,Calm,Calm,-,N/A,,Clear,0,2013-12-27 12:54:00
8:15 AM,-8.1,-12.8,80,30.18,10.0,West,3.5,-,N/A,,Clear,270,2013-12-27 13:15:00
8:34 AM,-7.4,-11.7,81,30.18,10.0,West,3.5,-,N/A,,Clear,280,2013-12-27 13:34:00
8:54 AM,-5.6,-9.6,83,30.18,10.0,Calm,Calm,-,N/A,,Clear,0,2013-12-27 13:54:00
9:15 AM,-0.4,-4.0,85,30.18,10.0,Calm,Calm,-,N/A,,Clear,0,2013-12-27 14:15:00
9:34 AM,6.6,3.2,86,30.18,10.0,WSW,3.5,-,N/A,,Clear,250,2013-12-27 14:34:00
9:54 AM,8.8,4.8,84,30.19,10.0,West,4.6,-,N/A,,Clear,260,2013-12-27 14:54:00
9:58 AM,9.1,5.0,83,30.19,10.0,West,4.6,-,N/A,,Clear,260,2013-12-27 14:58:00
10:35 AM,10.0,5.7,83,30.18,10.0,Calm,Calm,-,N/A,,Mostly Cloudy,0,2013-12-27 15:35:00
10:54 AM,13.3,8.8,82,30.16,10.0,SSW,4.6,-,N/A,,Mostly Cloudy,210,2013-12-27 15:54:00
11:15 AM,14.5,10.9,86,30.14,10.0,SSW,5.8,-,N/A,,Mostly Cloudy,200,2013-12-27 16:15:00
11:34 AM,18.7,15.4,87,30.13,10.0,SSW,9.2,-,N/A,,Overcast,210,2013-12-27 16:34:00
11:54 AM,20.3,17.4,89,30.11,10.0,SSW,6.9,-,N/A,,Overcast,210,2013-12-27 16:54:00
12:15 PM,22.1,18.5,86,30.10,10.0,SSW,11.5,17.3,N/A,,Overcast,210,2013-12-27 17:15:00
12:34 PM,23.4,19.6,85,30.09,10.0,SW,10.4,16.1,N/A,,Overcast,220,2013-12-27 17:34:00
12:54 PM,23.7,19.8,85,30.07,10.0,SSW,10.4,-,N/A,,Overcast,210,2013-12-27 17:54:00
1:15 PM,24.6,21.0,86,30.05,10.0,SSW,10.4,-,N/A,,Overcast,200,2013-12-27 18:15:00
1:34 PM,25.7,22.3,87,30.04,10.0,SSW,11.5,-,N/A,,Overcast,210,2013-12-27 18:34:00
1:55 PM,27.1,23.9,88,30.03,10.0,SW,11.5,16.1,N/A,,Overcast,220,2013-12-27 18:55:00
2:15 PM,27.5,24.3,88,30.01,10.0,SSW,11.5,18.4,N/A,,Overcast,210,2013-12-27 19:15:00
2:34 PM,27.7,24.4,88,30.00,10.0,SW,10.4,16.1,N/A,,Overcast,220,2013-12-27 19:34:00
2:55 PM,28.2,24.3,85,29.98,10.0,SSW,15.0,20.7,N/A,,Overcast,210,2013-12-27 19:55:00
3:14 PM,28.8,25.3,87,29.97,10.0,SSW,12.7,19.6,N/A,,Overcast,210,2013-12-27 20:14:00
3:34 PM,29.3,26.6,90,29.95,7.0,SSW,12.7,18.4,N/A,,Overcast,210,2013-12-27 20:34:00
3:55 PM,30.2,27.3,89,29.93,7.0,SSW,17.3,25.3,N/A,,Overcast,210,2013-12-27 20:55:00
4:14 PM,30.9,27.9,88,29.91,5.0,SSW,18.4,25.3,N/A,,Overcast,200,2013-12-27 21:14:00
4:34 PM,32.0,29.1,89,29.89,5.0,SSW,19.6,25.3,N/A,,Overcast,200,2013-12-27 21:34:00
4:55 PM,32.4,29.3,88,29.88,7.0,SSW,17.3,23.0,N/A,,Overcast,200,2013-12-27 21:55:00
5:14 PM,32.9,30.0,89,29.87,7.0,SSW,15.0,23.0,N/A,,Overcast,210,2013-12-27 22:14:00
5:35 PM,32.9,30.0,89,29.85,10.0,SSW,15.0,20.7,N/A,,Overcast,200,2013-12-27 22:35:00
5:54 PM,33.8,30.9,89,29.84,10.0,SSW,13.8,19.6,N/A,,Overcast,210,2013-12-27 22:54:00
6:14 PM,34.2,31.6,90,29.85,7.0,SSW,13.8,21.9,N/A,,Overcast,210,2013-12-27 23:14:00
6:35 PM,34.3,31.5,89,29.83,10.0,SSW,17.3,25.3,N/A,,Overcast,210,2013-12-27 23:35:00
6:54 PM,34.3,31.5,89,29.82,7.0,SSW,16.1,24.2,N/A,,Overcast,210,2013-12-27 23:54:00
7:14 PM,34.3,31.1,88,29.84,7.0,SW,9.2,24.2,N/A,,Overcast,230,2013-12-28 00:14:00
7:34 PM,33.8,30.0,86,29.84,10.0,SW,10.4,19.6,N/A,,Overcast,230,2013-12-28 00:34:00
7:54 PM,33.3,29.3,85,29.85,10.0,WSW,8.1,16.1,N/A,,Overcast,240,2013-12-28 00:54:00
8:15 PM,32.5,27.7,82,29.85,10.0,WSW,11.5,16.1,N/A,,Overcast,240,2013-12-28 01:15:00
8:34 PM,32.2,27.0,81,29.85,10.0,WSW,8.1,-,N/A,,Overcast,250,2013-12-28 01:34:00
8:55 PM,32.0,26.6,80,29.84,10.0,WSW,6.9,-,N/A,,Overcast,250,2013-12-28 01:55:00
9:15 PM,31.6,26.2,80,29.84,10.0,WSW,6.9,-,N/A,,Overcast,240,2013-12-28 02:15:00
9:34 PM,31.1,26.1,82,29.84,10.0,WSW,6.9,-,N/A,,Overcast,240,2013-12-28 02:34:00
9:55 PM,30.7,25.7,82,29.83,10.0,SW,5.8,-,N/A,,Overcast,230,2013-12-28 02:55:00
10:14 PM,30.6,25.7,82,29.83,10.0,WSW,5.8,-,N/A,,Overcast,250,2013-12-28 03:14:00
10:34 PM,30.2,25.5,83,29.84,10.0,West,5.8,-,N/A,,Overcast,260,2013-12-28 03:34:00
10:55 PM,30.2,25.5,83,29.84,10.0,West,3.5,-,N/A,,Overcast,260,2013-12-28 03:55:00
11:14 PM,30.0,25.5,83,29.85,10.0,West,5.8,-,N/A,,Overcast,270,2013-12-28 04:14:00
11:34 PM,30.0,25.5,83,29.84,10.0,West,4.6,-,N/A,,Overcast,260,2013-12-28 04:34:00
11:55 PM,30.0,25.5,83,29.85,10.0,West,4.6,-,N/A,,Overcast,260,2013-12-28 04:55:00